{"data":{"norad_id":55352,"intl_designator":"2023-013X","name":"STARLINK-5547","alt_names":[],"object_type":"PAYLOAD","status":"ACTIVE","operator":null,"country":"US","launch_date":"2023-01-26","launch_site_code":"AFETR","launch_vehicle":null,"mission":null,"orbit_class":"UNKNOWN","rcs_meters":null,"size_class":null,"mass_kg":null,"dimensions":null,"purposes":["comms"],"wikipedia_slug":null,"has_3d_model":false,"image_url":null,"decayed_at":null,"tle_current":{"epoch":"2026-05-24T22:22:11.820864Z","epoch_age_seconds":77314,"freshness":"FRESH","line1":"1 55352U 23013X   26144.93208126 -.00001015  00000+0 -27370-4 0  9998","line2":"2 55352  43.0006 229.4270 0001332 269.5024  90.5675 15.27571340183377","mean_motion":15.2757134,"eccentricity":0.0001332,"inclination_deg":43.0006,"raan_deg":229.427,"arg_perigee_deg":269.5024,"mean_anomaly_deg":90.5675,"bstar":-2.737e-5,"rev_number":18337,"period_min":94.267283124073,"perigee_km":482.16111387554,"apogee_km":483.98894075962,"semimajor_km":6861.2120273176,"source":"CELESTRAK","updated_at":"2026-05-25T13:38:17.764119Z"}}}